[[{"header":{"parameterUnit":"m.s-1","parameterCategory":1,"la1":30.2991,"la2":30.254,"lo1":-89.0895,"lo2":-89.0444,"dy":0.0017,"dx":0.0017,"nx":28,"ny":28,"refTime":"2024-12-12T09:00:00:Z","depth":0,"parameterNumber":2,"parameterNumberName":"U-component_of_WINDS"},"data":[0,0,0,0,0,0,0,0,0,0,0,0,0,0,0,0,0,0,0,0,0,0,0,0,0,0,0,0,0,0,0,0,0,0,0,0,0,0,0,0,0,0,0,0,0,0,0,0,0,0,0,0,0,0,0,0,0,0,-5.3323,-5.3324,0,-5.3397,-5.3398,-5.3399,-5.3277,-5.3273,-5.3269,-5.3265,-5.3346,-5.3351,-5.3357,0,0,0,0,0,0,0,0,0,0,0,0,0,-5.3081,-5.3086,-5.3323,-5.3324,-5.3325,-5.3397,-5.3398,-5.3399,-5.3278,-5.3273,-5.3268,-5.3263,-5.3344,-5.3351,-5.3358,0,0,0,0,0,0,0,0,0,0,0,0,0,-5.3174,-5.3088,-5.3323,-5.3273,-5.3269,-5.3397,-5.3398,-5.3399,-5.3279,-5.3273,-5.3266,-5.3261,-5.3341,-5.335,-5.3359,-5.354,0,0,-5.3387,-5.3391,0,0,0,0,0,0,0,0,-5.3169,-5.3183,-5.3279,-5.3277,-5.3273,-5.3321,-5.3342,-5.3447,-5.328,-5.3275,-5.3265,-5.3257,-5.3343,-5.3351,-5.3379,-5.3544,-5.3547,-5.3387,-5.3393,-5.3397,-5.3399,0,0,0,0,0,0,0,-5.3163,-5.3179,-5.3352,-5.3281,-5.3277,-5.3248,-5.3255,-5.3361,-5.3344,-5.3275,-5.3267,-5.3277,-5.334,-5.3371,-5.338,-5.3548,-5.3387,-5.3395,-5.3401,-5.3404,-5.3865,-5.3871,0,0,0,0,0,0,-5.3162,-5.3175,-5.335,-5.3354,-5.3204,-5.3258,-5.3265,-5.3312,-5.3342,-5.334,-5.3282,-5.3271,-5.3358,-5.337,-5.3383,-5.3595,-5.3397,-5.3405,-5.341,-5.3858,-5.3866,-5.3873,0,0,0,0,0,0,-5.3157,-5.3179,-5.3347,-5.3262,-5.3281,-5.3269,-5.3323,-5.3317,-5.3347,-5.3347,-5.3344,-5.3317,-5.3354,-5.337,-5.3501,-5.3596,-5.3409,-5.3418,-5.385,-5.386,-5.387,-5.4023,0,0,0,0,0,0,-5.3151,-5.3178,-5.3245,-5.3265,-5.3286,-5.3464,-5.3329,-5.3323,-5.3363,-5.3349,-5.3378,-5.3377,-5.335,-5.3488,-5.351,-5.3606,-5.3425,-5.3841,-5.3855,-5.3867,-5.401,-5.4038,-5.4061,0,0,0,0,0,-5.3142,-5.3287,-5.3249,-5.3271,-5.337,-5.3469,-5.3482,-5.3446,-5.3371,-5.3439,-5.3439,-5.3376,-5.3583,-5.3503,-5.3526,-5.3626,-5.3835,-5.3851,-5.3866,-5.3998,-5.4032,-5.4061,0,0,0,0,0,0,-5.328,-5.3288,-5.3247,-5.3401,-5.3435,-5.3448,-5.3533,-5.3483,-5.3541,-5.3525,-5.348,-5.3488,-5.3629,-5.3641,-5.3551,-5.3803,-5.3697,-5.3717,-5.3789,-5.3822,-5.3847,-5.3841,-5.3432,0,0,0,0,0,-5.3328,-5.3407,-5.341,-5.3546,-5.3565,-5.3547,-5.3589,-5.3558,-5.3592,-5.3606,-5.3615,-5.3652,-5.3725,-5.3774,-5.3841,-5.4011,-5.4016,-5.4092,-5.4117,-5.4139,-5.4157,-5.4247,-5.4281,-5.3924,-5.3924,-5.3923,0,0,-5.3429,-5.3443,-5.3496,-5.3574,-5.3597,-5.368,-5.356,-5.3653,-5.3714,-5.3621,-5.3744,-5.3753,-5.3791,-5.3942,-5.401,-5.3957,-5.4257,-5.4158,-5.4175,-5.4182,-5.4266,-5.43,-5.433,-5.3934,-5.3932,-5.3931,0,0,-5.3654,-5.3673,-5.3788,-5.3813,-5.3848,-5.3835,-5.3863,-5.3884,-5.3885,-5.4009,-5.394,-5.4014,-5.414,-5.417,-5.4202,-5.4439,-5.4384,-5.4463,-5.4597,-5.4686,-5.4714,-5.4739,-5.4822,-5.4853,-5.4481,-5.4481,-5.4482,0,-5.3775,-5.3896,-5.3854,-5.3951,-5.3988,-5.3906,-5.4023,-5.405,-5.4106,-5.4134,-5.4074,-5.423,-5.4251,-5.4407,-5.4465,-5.4494,-5.4525,-5.4458,-5.4713,-5.4737,-5.476,-5.4839,-5.4871,-5.4491,-5.449,-5.4489,-5.4488,0,-5.4043,-5.4128,-5.4217,-5.4271,-5.4318,-5.4425,-5.44,-5.4453,-5.4419,-5.4413,-5.454,-5.4561,-5.4631,-5.4666,-5.4634,-5.4819,-5.4784,-5.472,-5.4612,-5.4804,-5.4878,-5.4908,-5.4504,-5.4501,-5.4498,-5.4496,0,0,-5.4356,-5.4386,-5.4419,-5.4442,-5.4476,-5.4541,-5.4645,-5.4711,-5.4757,-5.48,-5.4885,-5.4995,-5.4935,-5.4971,-5.4942,-5.502,-5.5206,-5.4945,-5.4946,-5.4992,-5.541,-5.5457,-5.5493,-5.517,-5.5175,-5.518,-5.5406,0,-5.4579,-5.4755,-5.4721,-5.4894,-5.4972,-5.4896,-5.4986,-5.5017,-5.5014,-5.5081,-5.5079,-5.5156,-5.5072,-5.5093,-5.5167,-5.5168,-5.5289,-5.5151,-5.525,-5.5254,-5.5241,-5.5532,-5.5582,-5.5795,-5.5435,-5.544,-5.5443,0,-5.4863,-5.4913,-5.5094,-5.5114,-5.5145,-5.5227,-5.5285,-5.535,-5.5384,-5.5376,-5.5417,-5.5374,-5.5478,-5.537,-5.5513,-5.542,-5.5459,-5.5466,-5.5473,-5.548,-5.5359,-5.5545,-5.5861,-5.5893,-5.5488,-5.5485,-5.5482,0,-5.5071,-5.5186,-5.5308,-5.533,-5.5358,-5.5417,-5.5431,-5.5459,-5.5501,-5.5552,-5.5579,-5.5644,-5.5679,-5.573,-5.5705,-5.5629,-5.5853,-5.5743,-5.585,-5.5851,-5.59,-5.5897,-5.6225,-5.5928,-5.5927,-5.5926,-5.5926,0,-5.5323,-5.5437,-5.5401,-5.5477,-5.5602,-5.5562,-5.5687,-5.5692,-5.5718,-5.5794,-5.5733,-5.5806,-5.5769,-5.584,-5.5822,-5.5943,-5.596,-5.5958,-5.5951,-5.5962,-5.5962,-5.5986,-5.597,-5.5935,-5.5933,-5.5931,-5.593,0,-5.5577,-5.5558,-5.5686,-5.5701,-5.5708,-5.5799,-5.5812,-5.5883,-5.5876,-5.5973,-5.5993,-5.5983,-5.6063,-5.6044,-5.6132,-5.612,-5.6272,-5.6248,-5.626,-5.6253,-5.6361,-5.6351,-5.6715,-5.676,-5.6435,-5.6438,-5.644,0,-5.5738,-5.5823,-5.5847,-5.5892,-5.5911,-5.5985,-5.6027,-5.5993,-5.6039,-5.6085,-5.615,-5.6225,-5.6282,-5.6414,-5.6415,-5.6482,-5.6458,-5.6581,-5.6468,-5.6476,-5.6458,-5.6453,-5.6461,-5.6603,-5.6607,-5.661,-5.6613,0,-5.6026,-5.6012,-5.6074,-5.6134,-5.6186,-5.6232,-5.6272,-5.6313,-5.6281,-5.6337,-5.6417,-5.6462,-5.6551,-5.6625,-5.6687,-5.6703,-5.6654,-5.6649,-5.6676,-5.6688,-5.6691,-5.6689,-5.632,-5.664,-5.6637,-5.6635,-5.6634,-5.6633,-5.6237,-5.6308,-5.6336,-5.6408,-5.6434,-5.6473,-5.654,-5.6541,-5.6606,-5.6675,-5.6651,-5.6743,-5.6775,-5.6852,-5.6877,-5.6949,-5.6902,-5.6943,-5.6953,-5.6964,-5.6976,-5.6681,-5.696,-5.6959,-5.6958,-5.6958,-5.6957,0,-5.652,-5.6534,-5.66,-5.6657,-5.6714,-5.6661,-5.6703,-5.6754,-5.6835,-5.6869,-5.6926,-5.7018,-5.7091,-5.7098,-5.7166,-5.7222,-5.7201,-5.7241,-5.7236,-5.7241,-5.7014,-5.6983,-5.7257,-5.7257,-5.7257,-5.7257,-5.7257,-5.7257,-5.6673,-5.6791,-5.6781,-5.6912,-5.6926,-5.7014,-5.7042,-5.7078,-5.7105,-5.721,-5.7269,-5.7272,-5.7296,-5.7365,-5.743,-5.743,-5.7458,-5.7507,-5.7498,-5.7287,-5.7257,-5.7228,-5.7198,-5.7513,-5.7514,-5.7718,-5.772,-5.7721]},{"header":{"parameterUnit":"m.s-1","parameterCategory":1,"la1":30.2991,"la2":30.254,"lo1":-89.0895,"lo2":-89.0444,"dy":0.0017,"dx":0.0017,"nx":28,"ny":28,"refTime":"2024-12-12T09:00:00:Z","depth":0,"parameterNumber":3,"parameterNumberName":"V-component_of_WINDS"},"data":[0,0,0,0,0,0,0,0,0,0,0,0,0,0,0,0,0,0,0,0,0,0,0,0,0,0,0,0,0,0,0,0,0,0,0,0,0,0,0,0,0,0,0,0,0,0,0,0,0,0,0,0,0,0,0,0,0,0,-1.5336,-1.5336,0,-1.5326,-1.5326,-1.5326,-1.533,-1.533,-1.533,-1.533,-1.5319,-1.5318,-1.5318,0,0,0,0,0,0,0,0,0,0,0,0,0,-1.5358,-1.5358,-1.5336,-1.5336,-1.5336,-1.5326,-1.5326,-1.5326,-1.5329,-1.533,-1.533,-1.533,-1.5319,-1.5318,-1.5318,0,0,0,0,0,0,0,0,0,0,0,0,0,-1.5348,-1.5358,-1.5336,-1.5337,-1.5337,-1.5326,-1.5326,-1.5326,-1.5329,-1.533,-1.533,-1.533,-1.5319,-1.5318,-1.5318,-1.5305,0,0,-1.5315,-1.5315,0,0,0,0,0,0,0,0,-1.5349,-1.5347,-1.5337,-1.5337,-1.5337,-1.5329,-1.5329,-1.5319,-1.5329,-1.5332,-1.533,-1.5331,-1.5322,-1.5321,-1.5318,-1.5305,-1.5304,-1.5315,-1.5315,-1.5314,-1.5314,0,0,0,0,0,0,0,-1.5349,-1.5348,-1.5332,-1.5337,-1.5337,-1.5337,-1.5336,-1.5327,-1.5325,-1.5332,-1.5332,-1.5331,-1.5322,-1.5319,-1.5318,-1.5304,-1.5315,-1.5314,-1.5314,-1.5314,-1.5278,-1.5278,0,0,0,0,0,0,-1.535,-1.5348,-1.5333,-1.5332,-1.5344,-1.5336,-1.5335,-1.5331,-1.5325,-1.5325,-1.5331,-1.5331,-1.532,-1.5319,-1.5318,-1.5301,-1.5314,-1.5313,-1.5313,-1.5278,-1.5278,-1.5277,0,0,0,0,0,0,-1.5351,-1.5349,-1.5333,-1.534,-1.5338,-1.5336,-1.5331,-1.5331,-1.5328,-1.5324,-1.5324,-1.5328,-1.532,-1.5319,-1.5308,-1.5301,-1.5313,-1.5312,-1.5279,-1.5278,-1.5278,-1.5269,0,0,0,0,0,0,-1.5351,-1.5349,-1.5345,-1.534,-1.5338,-1.5324,-1.5331,-1.5331,-1.5327,-1.5327,-1.5322,-1.5321,-1.532,-1.5309,-1.5307,-1.53,-1.5312,-1.528,-1.5279,-1.5278,-1.527,-1.5269,-1.5267,0,0,0,0,0,-1.5352,-1.5343,-1.5345,-1.5343,-1.5333,-1.5324,-1.5322,-1.5322,-1.5326,-1.5321,-1.5319,-1.5321,-1.5302,-1.5308,-1.5306,-1.5298,-1.528,-1.5279,-1.5278,-1.5271,-1.5269,-1.5267,0,0,0,0,0,0,-1.5348,-1.5343,-1.5344,-1.5334,-1.5329,-1.5324,-1.5319,-1.532,-1.5314,-1.5315,-1.5314,-1.5313,-1.5302,-1.5299,-1.5306,-1.5285,-1.5292,-1.529,-1.5287,-1.5285,-1.5283,-1.5284,-1.5311,0,0,0,0,0,-1.5345,-1.5339,-1.5335,-1.5326,-1.5324,-1.5321,-1.5318,-1.5318,-1.5313,-1.5311,-1.5307,-1.5302,-1.5295,-1.529,-1.5283,-1.527,-1.5268,-1.5264,-1.5262,-1.5261,-1.5259,-1.525,-1.5247,-1.5274,-1.5274,-1.5274,0,0,-1.5341,-1.5337,-1.5333,-1.5325,-1.5321,-1.5314,-1.532,-1.5312,-1.5306,-1.531,-1.5299,-1.5296,-1.529,-1.5277,-1.5272,-1.5275,-1.5251,-1.526,-1.5259,-1.5258,-1.5249,-1.5246,-1.5244,-1.5273,-1.5273,-1.5273,0,0,-1.5328,-1.5325,-1.5317,-1.5313,-1.5307,-1.5305,-1.5303,-1.5298,-1.5296,-1.5286,-1.5287,-1.528,-1.5268,-1.5263,-1.5259,-1.5242,-1.5244,-1.524,-1.5231,-1.5222,-1.522,-1.5218,-1.5211,-1.5208,-1.5239,-1.5239,-1.5239,0,-1.5323,-1.5312,-1.5312,-1.5304,-1.5299,-1.5302,-1.5292,-1.5288,-1.528,-1.5277,-1.5281,-1.5264,-1.526,-1.5246,-1.5242,-1.5239,-1.5235,-1.5241,-1.5221,-1.5219,-1.5217,-1.5209,-1.5207,-1.5238,-1.5238,-1.5238,-1.5239,0,-1.5305,-1.5297,-1.5291,-1.5283,-1.5278,-1.5269,-1.5267,-1.5261,-1.5262,-1.5259,-1.5247,-1.5243,-1.5234,-1.5231,-1.5231,-1.5216,-1.5217,-1.5221,-1.5227,-1.5214,-1.5207,-1.5204,-1.5238,-1.5238,-1.5238,-1.5238,0,0,-1.5289,-1.5281,-1.5278,-1.5274,-1.5267,-1.5261,-1.5251,-1.5243,-1.5237,-1.5232,-1.5222,-1.5211,-1.5214,-1.5209,-1.5209,-1.5201,-1.5186,-1.5205,-1.5205,-1.52,-1.5166,-1.5162,-1.5159,-1.5187,-1.5187,-1.5186,-1.5166,0,-1.5275,-1.5259,-1.5258,-1.5242,-1.5234,-1.5236,-1.5227,-1.5221,-1.5219,-1.5211,-1.5208,-1.5199,-1.5204,-1.5201,-1.5193,-1.519,-1.5179,-1.5191,-1.5177,-1.5177,-1.5177,-1.5156,-1.5152,-1.5133,-1.5163,-1.5163,-1.5163,0,-1.5256,-1.5249,-1.5233,-1.5225,-1.5222,-1.5214,-1.5205,-1.5198,-1.5191,-1.5189,-1.5183,-1.5184,-1.5172,-1.518,-1.5163,-1.5172,-1.5166,-1.5163,-1.5162,-1.516,-1.5168,-1.5151,-1.5127,-1.5124,-1.5159,-1.5159,-1.5159,0,-1.5244,-1.5231,-1.5219,-1.5215,-1.5207,-1.5201,-1.5197,-1.5191,-1.5185,-1.5177,-1.5173,-1.5164,-1.5158,-1.5151,-1.5148,-1.5154,-1.5131,-1.5139,-1.5128,-1.5128,-1.5122,-1.5122,-1.5095,-1.5121,-1.5121,-1.5121,-1.5121,0,-1.5228,-1.5217,-1.5213,-1.5206,-1.5193,-1.5192,-1.518,-1.5176,-1.517,-1.5161,-1.5162,-1.5153,-1.5151,-1.5141,-1.5139,-1.5124,-1.5122,-1.512,-1.5119,-1.5119,-1.5119,-1.5114,-1.5114,-1.512,-1.512,-1.5121,-1.5121,0,-1.5212,-1.521,-1.5196,-1.5189,-1.5187,-1.5178,-1.5171,-1.5163,-1.516,-1.5148,-1.5145,-1.514,-1.5129,-1.5125,-1.5112,-1.511,-1.5093,-1.5094,-1.5095,-1.5094,-1.5083,-1.5083,-1.5051,-1.5045,-1.5076,-1.5076,-1.5076,0,-1.5201,-1.5193,-1.5185,-1.5178,-1.5174,-1.5165,-1.5158,-1.5156,-1.5149,-1.5139,-1.5132,-1.5121,-1.5112,-1.5093,-1.5087,-1.5076,-1.5076,-1.5066,-1.5075,-1.5074,-1.5074,-1.5074,-1.5072,-1.5064,-1.5063,-1.5063,-1.5063,0,-1.5181,-1.518,-1.5171,-1.5161,-1.5154,-1.5146,-1.5138,-1.5133,-1.5129,-1.5121,-1.5109,-1.5102,-1.5087,-1.5075,-1.5064,-1.5059,-1.5059,-1.506,-1.5057,-1.5055,-1.5055,-1.5053,-1.5088,-1.5061,-1.5061,-1.5061,-1.5061,-1.5061,-1.5167,-1.5159,-1.5151,-1.514,-1.5134,-1.5126,-1.5118,-1.5113,-1.5103,-1.5091,-1.509,-1.5077,-1.5068,-1.5052,-1.5047,-1.5035,-1.5038,-1.5034,-1.5032,-1.5031,-1.5029,-1.5058,-1.5033,-1.5033,-1.5033,-1.5033,-1.5033,0,-1.5145,-1.514,-1.513,-1.5119,-1.511,-1.5112,-1.5103,-1.5095,-1.5083,-1.5075,-1.5065,-1.505,-1.5038,-1.5031,-1.5019,-1.5011,-1.501,-1.5007,-1.5007,-1.5005,-1.5028,-1.5031,-1.5007,-1.5007,-1.5007,-1.5007,-1.5007,-1.5007,-1.5133,-1.5119,-1.5116,-1.5098,-1.5093,-1.5079,-1.5074,-1.5066,-1.5059,-1.5042,-1.5032,-1.5027,-1.5019,-1.5005,-1.4994,-1.4992,-1.4986,-1.4982,-1.498,-1.5001,-1.5004,-1.5006,-1.5009,-1.4982,-1.4982,-1.4958,-1.4958,-1.4958]}]]